Tracking 30922 objects as of 2-Jul-2025
HD Live streaming from Space Station
objects crossing your sky now

SL-8 DEB

Track SL-8 DEB now!
10-day predictions


NORAD ID: 21943
Int'l Code: 1991-009CE
Perigee: 1,493.5 km
Apogee: 1,712.4 km
Inclination: 74.0 °
Period: 118.1 minutes
Semi major axis: 7973 km
RCS: 0.0463 m2 (small)
Launch date: February 12, 1991
Source: Commonwealth of Independent States (former USSR) (CIS)
Launch site: PLESETSK MISSILE AND SPACE COMPLEX (PKMTR)

Note: This is SATELLITE DEBRIS
Your satellite tracking list
Your tracking list is empty




NASA's NSSDC Master Catalog

Two Line Element Set (TLE):
1 21943U 91009CE  25182.85641990 -.00000053  00000-0 -35888-3 0  9993
2 21943  73.9513 209.4079 0137250 206.6202 329.2292 12.19255875527318
Source of the keplerian elements: AFSPC